Location: Barruelo
(41.2448°N, 3.8231°W)
Time: 18:09:34
(UTC+00:00)

USA 238 - Pass Details

Date: 11 December 2025
Orbit: 883 x 1328 km, 63.4° (Epoch: 10 January)

Event Time Altitude Azimuth Distance (km) Brightness Sun altitude
Rises 18:28:42 0° 218° (SW) 3,497 7.3 -18.6°
Reaches altitude 10° 18:31:07 10° 220° (SW) 2,587 6.5 -19.0°
Maximum altitude 18:37:07 76° 306° (NW) 991 3.6 -20.1°
Enters shadow 18:41:25 23° 29° (NNE) 2,014 4.8 -20.9°
